THY2606 LUKK-LROP

Flight info

Callsign THY2606
Flight time N/A
Altitude 28000
Route LIPTA T34 KODRU DCT DENAK
Aircraft A320/M-SDE3FGHIRWY/LB1

Departure

Time 2026-04-27 17:00
Airport Chişinău International Airport (LUKK)

Arrival

Time N/A
Airport Bucharest Henri Coandă International Airport (LROP)
Time Latitude Longitude Altitude Speed Heading
2026-04-27 16:41 46.93480 28.93336 408 ft 0 kts 94°
2026-04-27 16:55 46.93478 28.93353 408 ft 3 kts 104°
2026-04-27 16:55 46.93462 28.93389 408 ft 6 kts 122°
2026-04-27 16:55 46.93437 28.93449 408 ft 8 kts 123°
2026-04-27 16:55 46.93384 28.93484 408 ft 10 kts 184°
2026-04-27 16:56 46.93311 28.93473 408 ft 12 kts 186°
2026-04-27 16:56 46.93218 28.93455 409 ft 14 kts 187°
2026-04-27 16:56 46.93148 28.93506 411 ft 12 kts 112°
2026-04-27 16:56 46.93134 28.93645 409 ft 16 kts 97°
2026-04-27 16:57 46.93119 28.93824 407 ft 19 kts 97°
2026-04-27 16:57 46.93101 28.94033 407 ft 22 kts 97°
2026-04-27 16:57 46.93082 28.94277 405 ft 26 kts 97°
2026-04-27 16:57 46.93060 28.94519 407 ft 20 kts 97°
2026-04-27 16:58 46.93042 28.94732 408 ft 22 kts 97°
2026-04-27 16:58 46.93022 28.94964 410 ft 24 kts 97°
2026-04-27 16:58 46.92988 28.95108 410 ft 3 kts 172°
2026-04-27 16:58 46.92953 28.95113 410 ft 8 kts 176°
2026-04-27 16:59 46.92888 28.95117 409 ft 11 kts 178°
2026-04-27 16:59 46.92822 28.95086 406 ft 11 kts 250°
2026-04-27 16:59 46.92820 28.95038 409 ft 0 kts 265°
2026-04-27 16:59 46.92814 28.94841 408 ft 59 kts 270°
2026-04-27 17:00 46.92812 28.92812 689 ft 152 kts 279°
2026-04-27 17:00 46.92815 28.90656 1800 ft 165 kts 271°
2026-04-27 17:00 46.92767 28.88973 2675 ft 167 kts 271°
2026-04-27 17:01 46.92716 28.87193 3035 ft 186 kts 271°
2026-04-27 17:01 46.92669 28.85265 3249 ft 210 kts 270°
2026-04-27 17:01 46.92614 28.83008 3663 ft 234 kts 270°
2026-04-27 17:01 46.92418 28.80571 4384 ft 250 kts 253°
2026-04-27 17:02 46.91353 28.78501 5252 ft 265 kts 221°
2026-04-27 17:02 46.89747 28.77159 6172 ft 274 kts 208°
2026-04-27 17:02 46.87964 28.76094 7043 ft 279 kts 206°
2026-04-27 17:02 46.86136 28.75059 7882 ft 284 kts 207°
2026-04-27 17:03 46.84307 28.73945 8749 ft 286 kts 210°
2026-04-27 17:03 46.82671 28.72857 9169 ft 290 kts 206°
2026-04-27 17:03 46.80849 28.71556 10270 ft 292 kts 213°
2026-04-27 17:03 46.78997 28.70162 10684 ft 310 kts 214°
2026-04-27 17:04 46.77030 28.68617 10950 ft 330 kts 219°
2026-04-27 17:04 46.75010 28.66948 11498 ft 337 kts 220°
2026-04-27 17:04 46.72989 28.65220 12235 ft 339 kts 221°
2026-04-27 17:04 46.70920 28.63514 12906 ft 343 kts 220°
2026-04-27 17:05 46.68822 28.61831 13649 ft 346 kts 219°
2026-04-27 17:05 46.66676 28.60186 14333 ft 349 kts 218°
2026-04-27 17:05 46.64538 28.58588 14974 ft 351 kts 218°
2026-04-27 17:05 46.63064 28.57502 15424 ft 351 kts 218°
2026-04-27 17:06 46.60298 28.55104 16197 ft 349 kts 226°
2026-04-27 17:06 46.58311 28.53038 16709 ft 353 kts 228°
2026-04-27 17:06 46.56534 28.51071 16741 ft 354 kts 224°
2026-04-27 17:06 46.54608 28.48824 17665 ft 361 kts 231°
2026-04-27 17:07 46.52631 28.46491 18050 ft 367 kts 229°
2026-04-27 17:07 46.50942 28.44665 18594 ft 371 kts 228°